| time (UTC) | temp F | wind direction | speed MPH | gust MPH | rain 1hr in | rain 24hr in | rain mn in | humidity % | barometer mb |
| 20260506034546 | 49 | 294 | 0.0 | 0.0 | 0.00 | 0.00 | 0.00 | 62 | 1009.0 |
| 20260506033044 | 49 | 294 | 0.0 | 0.0 | 0.00 | 0.00 | 0.00 | 61 | 1008.6 |
| 20260506031541 | 50 | 294 | 0.0 | 0.0 | 0.00 | 0.00 | 0.00 | 61 | 1008.8 |
| 20260506030037 | 50 | 294 | 0.0 | 0.0 | 0.00 | 0.00 | 0.00 | 60 | 1008.5 |
| 20260506024540 | 50 | 294 | 0.0 | 0.0 | 0.00 | 0.07 | 0.00 | 60 | 1008.5 |
| 20260506023033 | 50 | 294 | 0.0 | 0.0 | 0.00 | 0.07 | 0.00 | 59 | 1008.5 |
| 20260506021528 | 51 | 294 | 0.0 | 0.0 | 0.00 | 0.07 | 0.00 | 56 | 1008.2 |
| 20260506020026 | 52 | 294 | 0.0 | 0.0 | 0.00 | 0.07 | 0.00 | 53 | 1008.2 |
| 20260506014526 | 52 | 294 | 0.0 | 1.0 | 0.00 | 0.09 | 0.00 | 51 | 1007.9 |
| 20260506013027 | 52 | 294 | 0.0 | 0.0 | 0.00 | 0.09 | 0.00 | 50 | 1007.6 |
| 20260506011554 | 52 | 301 | 0.0 | 0.0 | 0.00 | 0.09 | 0.00 | 51 | 1007.6 |
| 20260506010019 | 52 | 301 | 0.0 | 0.0 | 0.00 | 0.09 | 0.00 | 50 | 1007.3 |
| 20260506004517 | 53 | 301 | 0.0 | 0.0 | 0.00 | 0.13 | 0.00 | 47 | 1007.3 |
| 20260506003017 | 53 | 307 | 0.0 | 3.0 | 0.00 | 0.13 | 0.00 | 45 | 1007.0 |
| 20260506001613 | 54 | 317 | 0.0 | 4.0 | 0.00 | 0.13 | 0.00 | 44 | 1007.0 |
| 20260506000110 | 54 | 321 | 3.0 | 7.0 | 0.00 | 0.13 | 0.00 | 41 | 1006.8 |
| 20260505234546 | 54 | 314 | 0.0 | 6.0 | 0.00 | 0.24 | 0.00 | 42 | 1007.0 |
| 20260505233009 | 54 | 295 | 2.0 | 5.0 | 0.00 | 0.24 | 0.00 | 40 | 1006.9 |
| 20260505231508 | 54 | 252 | 1.0 | 5.0 | 0.00 | 0.24 | 0.00 | 42 | 1007.0 |
| 20260505230007 | 55 | 271 | 0.0 | 3.0 | 0.00 | 0.24 | 0.00 | 42 | 1007.1 |
| 20260505224601 | 55 | 222 | 0.0 | 2.0 | 0.00 | 0.31 | 0.00 | 44 | 1007.3 |
| 20260505223104 | 55 | 291 | 0.0 | 2.0 | 0.00 | 0.31 | 0.00 | 44 | 1007.4 |
| 20260505221602 | 55 | 293 | 2.0 | 4.0 | 0.00 | 0.31 | 0.00 | 39 | 1007.3 |
| 20260505220026 | 55 | 236 | 1.0 | 5.0 | 0.00 | 0.31 | 0.00 | 40 | 1007.4 |
| 20260505214529 | 55 | 226 | 1.0 | 8.0 | 0.00 | 0.31 | 0.00 | 41 | 1007.6 |
| 20260505213025 | 55 | 317 | 1.0 | 5.0 | 0.00 | 0.31 | 0.00 | 44 | 1007.6 |
| 20260505211527 | 55 | 341 | 1.0 | 4.0 | 0.00 | 0.31 | 0.00 | 44 | 1007.5 |
| 20260505210021 | 55 | 264 | 0.0 | 7.0 | 0.00 | 0.31 | 0.00 | 45 | 1007.5 |
| 20260505204518 | 55 | 280 | 1.0 | 8.0 | 0.00 | 0.31 | 0.00 | 45 | 1007.7 |
| 20260505203015 | 55 | 295 | 1.0 | 6.0 | 0.00 | 0.31 | 0.00 | 47 | 1007.8 |
| 20260505201512 | 55 | 222 | 2.0 | 5.0 | 0.00 | 0.31 | 0.00 | 48 | 1007.6 |
| 20260505200010 | 55 | 233 | 0.0 | 3.0 | 0.00 | 0.31 | 0.00 | 54 | 1007.5 |
| 20260505194509 | 56 | 285 | 0.0 | 4.0 | 0.00 | 0.31 | 0.00 | 53 | 1007.5 |
| 20260505193006 | 56 | 258 | 1.0 | 6.0 | 0.00 | 0.31 | 0.00 | 54 | 1007.6 |
| 20260505191505 | 56 | 244 | 1.0 | 6.0 | 0.00 | 0.31 | 0.00 | 53 | 1007.6 |
| 20260505190005 | 57 | 221 | 1.0 | 5.0 | 0.00 | 0.31 | 0.00 | 54 | 1007.8 |
| 20260505184507 | 57 | 227 | 1.0 | 7.0 | 0.00 | 0.31 | 0.00 | 51 | 1007.9 |
| 20260505183001 | 56 | 233 | 0.0 | 8.0 | 0.00 | 0.31 | 0.00 | 52 | 1007.9 |
| 20260505181559 | 57 | 319 | 1.0 | 5.0 | 0.00 | 0.31 | 0.00 | 52 | 1007.8 |
| 20260505180100 | 57 | 334 | 2.0 | 5.0 | 0.00 | 0.31 | 0.00 | 52 | 1007.6 |
| 20260505174555 | 57 | 253 | 1.0 | 8.0 | 0.00 | 0.31 | 0.00 | 53 | 1007.5 |
| 20260505173110 | 58 | 238 | 1.0 | 5.0 | 0.00 | 0.31 | 0.00 | 51 | 1007.3 |
| 20260505171605 | 59 | 178 | 0.0 | 8.0 | 0.00 | 0.31 | 0.00 | 51 | 1007.4 |
| 20260505170045 | 58 | 288 | 1.0 | 7.0 | 0.00 | 0.31 | 0.00 | 54 | 1007.2 |
| 20260505164544 | 56 | 210 | 0.0 | 3.0 | 0.00 | 0.31 | 0.31 | 60 | 1007.3 |
| 20260505163042 | 56 | 75 | 0.0 | 3.0 | 0.00 | 0.31 | 0.31 | 62 | 1007.3 |
| 20260505161541 | 55 | 326 | 0.0 | 2.0 | 0.00 | 0.31 | 0.31 | 65 | 1007.2 |
| 20260505153010 | 52 | 302 | 1.0 | 3.0 | 0.00 | 0.31 | 0.31 | 78 | 1007.1 |
| 20260505151512 | 50 | 275 | 0.0 | 2.0 | 0.00 | 0.31 | 0.31 | 83 | 1007.5 |
| 20260505124540 | 0 | 0.0 | 0.0 | 0.00 | 0.31 | 0.31 | 1006.5 | ||
| 20260505123024 | 0 | 0.0 | 0.0 | 0.00 | 0.31 | 0.31 | 1006.9 | ||
| 20260505121531 | 0 | 0.0 | 0.0 | 0.00 | 0.31 | 0.31 | 1006.7 | ||
| 20260505120012 | 0 | 0.0 | 0.0 | 0.00 | 0.31 | 0.31 | 1006.4 | ||
| 20260505114508 | 0 | 0.0 | 0.0 | 0.00 | 0.31 | 0.31 | 1005.6 | ||
| 20260505113004 | 0 | 0.0 | 0.0 | 0.00 | 0.31 | 0.31 | 1005.7 | ||
| 20260505111600 | 0 | 0.0 | 0.0 | 0.00 | 0.31 | 0.31 | 1004.7 | ||
| 20260505101546 | 52 | 71 | 0.0 | 3.0 | 0.00 | 0.31 | 0.31 | 72 | 1004.6 |
| 20260505094542 | 52 | 289 | 0.0 | 2.0 | 0.00 | 0.31 | 0.31 | 76 | 1004.1 |
| 20260505093038 | 52 | 293 | 0.0 | 2.0 | 0.00 | 0.31 | 0.31 | 76 | 1004.2 |
| 20260505091547 | 52 | 248 | 0.0 | 2.0 | 0.00 | 0.31 | 0.31 | 77 | 1003.9 |
| 20260505090037 | 52 | 274 | 0.0 | 0.0 | 0.00 | 0.31 | 0.31 | 82 | 1003.6 |
| 20260505084528 | 52 | 265 | 0.0 | 0.0 | 0.00 | 0.31 | 0.31 | 82 | 1002.8 |
| 20260505083035 | 52 | 265 | 0.0 | 0.0 | 0.00 | 0.31 | 0.31 | 82 | 1002.8 |
| 20260505081525 | 52 | 264 | 0.0 | 0.0 | 0.00 | 0.31 | 0.31 | 85 | 1002.8 |
| 20260505080032 | 51 | 283 | 0.0 | 0.0 | 0.00 | 0.31 | 0.31 | 87 | 1002.4 |
| 20260505074518 | 51 | 283 | 0.0 | 0.0 | 0.00 | 0.31 | 0.31 | 87 | 1001.7 |
| 20260505073015 | 52 | 283 | 0.0 | 0.0 | 0.00 | 0.31 | 0.31 | 86 | 1001.4 |
| 20260505071512 | 52 | 283 | 0.0 | 0.0 | 0.00 | 0.31 | 0.31 | 86 | 1001.3 |
| 20260505070010 | 53 | 283 | 0.0 | 0.0 | 0.00 | 0.31 | 0.31 | 86 | 1001.3 |
| 20260505064504 | 54 | 283 | 0.0 | 0.0 | 0.00 | 0.31 | 0.31 | 85 | 1001.1 |
| 20260505063003 | 55 | 283 | 0.0 | 0.0 | 0.00 | 0.31 | 0.31 | 85 | 1000.6 |
| 20260505061559 | 55 | 301 | 0.0 | 0.0 | 0.00 | 0.31 | 0.31 | 85 | 1000.5 |
| 20260505060055 | 56 | 251 | 0.0 | 0.0 | 0.00 | 0.31 | 0.31 | 85 | 1000.6 |
| 20260505054617 | 56 | 238 | 0.0 | 0.0 | 0.00 | 0.31 | 0.31 | 85 | 1000.4 |
| 20260505053051 | 57 | 252 | 0.0 | 2.0 | 0.00 | 0.31 | 0.31 | 85 | 1000.6 |
| 20260505051547 | 57 | 250 | 0.0 | 2.0 | 0.00 | 0.31 | 0.31 | 85 | 1000.4 |
| 20260505041548 | 58 | 165 | 0.0 | 4.0 | 0.00 | 0.31 | 0.31 | 85 | 999.7 |